Aeroporto :







RITROVATECI SU...

 
LOGIN :

Iscrizione | Disclaimer

   EN    FR    IT 

 









Sommario :    VFR   VFR Marginale   IFR   IFR Intensivo   IFR Molto Intensivo
Visibilità : 
Base nubi : 
>= 8 km
>= 3000ft
5 / 8 km
1000 / 3000 ft
1500m / 5 km
500 / 1000 ft
800 / 1500m
200 / 500 ft
< 800m
< 200 ft
Simboli :   Temporali  Nebbia  Neve Forte  Precipitazioni Forti  Vento > 20 kt






- Altitudine del aeroporto : 13 ft
- Codice IATA : SXM


TNCM - Princess Juliana Int.

ULTIMO METAR :
  • 240900Z 12008KT 9999 FEW020 28/24 Q1015

METARs OBSOLETI :
  • 240800Z 11008KT 9999 FEW022
  • 240700Z 10009KT 9999 FEW020 28/24 Q1015

TAF TNCM
Valido dal 24 a 06 ore il 25 a 06 ore UTC


240520Z 2406/2506 09009KT P6SM FEW018 SCT035
FM241400 12015KT P6SM SCT022
FM242200 09009KT P6SM FEW019
FIR TJZS / America del Nord



MetMap, La meteo Aeronautica in un colpo d'occhio ! - Copyright ORBIFLY Dicembre 2007 - Disclaimer

ORBIFLY MET'MAP TEAM :

Programmazione e sviluppo : Alexandra Zaïnal
Concezione : Baudouin d'Aumeries
Aiuto per la programmazione : Marc-Olivier Méhu
Supporto tecnico e logistico : Manuel Goepfert
Aiuto per la traduzione : Arnaldo La Scala

Contatto : metmap@orbifly.com




FONTI E CREDITI :

   NOAA